[[{"header":{"parameterUnit":"m.s-1","parameterCategory":1,"la1":30.2991,"la2":30.254,"lo1":-89.0895,"lo2":-89.0444,"dy":0.0017,"dx":0.0017,"nx":28,"ny":28,"refTime":"2024-02-27T03:00:00:Z","depth":0,"parameterNumber":2,"parameterNumberName":"U-component_of_WINDS"},"data":[0,0,0,0,0,0,0,0,0,0,0,0,0,0,0,0,0,0,0,0,0,0,0,0,0,0,0,0,0,0,0,0,0,0,0,0,0,0,0,0,0,0,0,0,0,0,0,0,0,0,0,0,0,0,0,0,0,0,1.5278,1.5276,0,1.5151,1.5149,1.5148,1.5106,1.5107,1.5107,1.5108,1.4976,1.4973,1.4969,0,0,0,0,0,0,0,0,0,0,0,0,0,1.5484,1.5481,1.5278,1.5276,1.5275,1.5151,1.5149,1.5148,1.5106,1.5107,1.5107,1.5108,1.4978,1.4973,1.4968,0,0,0,0,0,0,0,0,0,0,0,0,0,1.538,1.5479,1.5278,1.5239,1.5234,1.5151,1.5149,1.5147,1.5106,1.5107,1.5108,1.5108,1.4979,1.4973,1.4968,1.4914,0,0,1.4949,1.4946,0,0,0,0,0,0,0,0,1.5386,1.5372,1.5247,1.5242,1.5236,1.5145,1.5174,1.5069,1.5106,1.5155,1.5108,1.5109,1.5032,1.5022,1.4996,1.4907,1.4902,1.4949,1.4945,1.4942,1.4941,0,0,0,0,0,0,0,1.5393,1.5377,1.5228,1.5245,1.5238,1.5228,1.5214,1.5154,1.509,1.515,1.5147,1.5133,1.5029,1.5002,1.4992,1.49,1.4949,1.4943,1.494,1.4937,1.4762,1.4761,0,0,0,0,0,0,1.5407,1.5384,1.5232,1.5224,1.5315,1.5224,1.5208,1.5174,1.5091,1.5079,1.5132,1.5131,1.5012,1.5,1.4988,1.492,1.4942,1.4937,1.4933,1.4763,1.4762,1.4761,0,0,0,0,0,0,1.5411,1.5394,1.5237,1.5303,1.5282,1.5219,1.5181,1.5171,1.5143,1.5077,1.5065,1.5116,1.5012,1.4996,1.4933,1.4915,1.4934,1.4929,1.4764,1.4763,1.4761,1.4783,0,0,0,0,0,0,1.5418,1.5396,1.5374,1.5303,1.5279,1.5184,1.518,1.5168,1.5133,1.5131,1.5058,1.5047,1.5011,1.4942,1.4927,1.4907,1.4924,1.4766,1.4764,1.4762,1.4784,1.4783,1.4782,0,0,0,0,0,1.5425,1.5385,1.5374,1.5355,1.5251,1.5183,1.5169,1.5129,1.5132,1.511,1.5068,1.505,1.4919,1.4936,1.4918,1.4896,1.4767,1.4764,1.4762,1.4784,1.4783,1.4782,0,0,0,0,0,0,1.5456,1.5375,1.5361,1.5297,1.5247,1.5176,1.5147,1.5129,1.5077,1.5077,1.5029,1.5013,1.4953,1.4918,1.4938,1.484,1.4842,1.4836,1.4865,1.4863,1.4862,1.4872,1.4919,0,0,0,0,0,1.5455,1.5407,1.5339,1.5289,1.5265,1.5211,1.5179,1.5153,1.5099,1.5078,1.5031,1.4979,1.4927,1.4893,1.4841,1.4779,1.4763,1.4755,1.4754,1.4753,1.4749,1.4714,1.471,1.4753,1.4753,1.4753,0,0,1.5453,1.5403,1.5375,1.5294,1.5252,1.5203,1.5193,1.5142,1.5105,1.507,1.5007,1.4971,1.491,1.4848,1.4818,1.4817,1.4733,1.475,1.475,1.4746,1.4711,1.4707,1.4704,1.4751,1.4752,1.4752,0,0,1.5425,1.5382,1.5336,1.5295,1.5232,1.5197,1.5186,1.5118,1.5092,1.5029,1.5002,1.4958,1.4868,1.4826,1.4793,1.4751,1.4732,1.4735,1.4729,1.4696,1.4692,1.4689,1.4675,1.467,1.4731,1.4731,1.4731,0,1.543,1.5356,1.5314,1.5265,1.523,1.5197,1.515,1.5112,1.5035,1.5012,1.5012,1.49,1.4857,1.4784,1.4774,1.4748,1.4734,1.4743,1.4696,1.4693,1.4689,1.4674,1.4669,1.4731,1.4731,1.4731,1.4731,0,1.5365,1.5314,1.5285,1.5213,1.5175,1.5127,1.5078,1.5044,1.5022,1.4986,1.4923,1.487,1.4807,1.4788,1.4765,1.4712,1.4714,1.4706,1.4707,1.4687,1.4672,1.4666,1.4733,1.4732,1.4732,1.4732,0,0,1.5351,1.5259,1.5248,1.5216,1.5145,1.5105,1.5056,1.4995,1.4967,1.4916,1.4874,1.4799,1.4792,1.4754,1.4726,1.4697,1.4668,1.4693,1.4691,1.469,1.4608,1.4614,1.4608,1.4656,1.4654,1.4653,1.4613,0,1.5314,1.5225,1.5188,1.5116,1.5069,1.5038,1.4995,1.4947,1.4913,1.4868,1.483,1.4778,1.4772,1.4749,1.4719,1.4678,1.4651,1.468,1.4616,1.4614,1.4632,1.4601,1.4607,1.4571,1.4607,1.4606,1.4605,0,1.5258,1.5208,1.5132,1.5068,1.5047,1.5009,1.4951,1.4908,1.4854,1.4831,1.479,1.4764,1.4711,1.4716,1.4643,1.4665,1.4636,1.4612,1.4609,1.4602,1.4608,1.4592,1.4559,1.4554,1.4596,1.4597,1.4597,0,1.5256,1.5169,1.5113,1.5086,1.501,1.4984,1.4951,1.4898,1.4864,1.4813,1.4791,1.4734,1.4703,1.466,1.462,1.4627,1.4551,1.4552,1.4531,1.4532,1.4516,1.4517,1.4478,1.4498,1.4498,1.4498,1.4498,0,1.5218,1.5173,1.5111,1.5076,1.5025,1.4983,1.4933,1.4898,1.4851,1.4809,1.4778,1.4739,1.4688,1.4643,1.461,1.4556,1.4542,1.4522,1.4514,1.4525,1.4527,1.4505,1.4506,1.4496,1.4497,1.4497,1.4497,0,1.5207,1.5164,1.51,1.5034,1.5017,1.4982,1.4925,1.489,1.4856,1.4803,1.4788,1.4733,1.4678,1.4634,1.4562,1.454,1.4483,1.4474,1.4502,1.4497,1.4479,1.4481,1.4423,1.4413,1.444,1.444,1.444,0,1.5185,1.515,1.5081,1.5051,1.5019,1.4971,1.4937,1.4894,1.4859,1.4795,1.4768,1.4712,1.4664,1.4578,1.4532,1.4477,1.4466,1.445,1.4458,1.447,1.4466,1.4469,1.4465,1.4449,1.4449,1.4449,1.4449,0,1.5152,1.5133,1.5085,1.503,1.4991,1.4945,1.4899,1.4876,1.4824,1.4787,1.4732,1.4695,1.4622,1.4566,1.4507,1.4473,1.4452,1.4447,1.4439,1.4449,1.4467,1.4458,1.45,1.4448,1.4448,1.4448,1.4448,1.4448,1.5135,1.5103,1.5049,1.4997,1.4958,1.4916,1.4881,1.4842,1.4795,1.4733,1.471,1.4653,1.4601,1.4519,1.4485,1.4439,1.4437,1.4426,1.4423,1.4421,1.4422,1.4475,1.4428,1.4428,1.4428,1.4428,1.4428,0,1.51,1.5065,1.5018,1.4955,1.4914,1.4899,1.4847,1.4814,1.4765,1.4718,1.4672,1.4608,1.4555,1.4505,1.4448,1.4422,1.4411,1.4409,1.441,1.4403,1.4427,1.444,1.4418,1.4418,1.4418,1.4418,1.4418,1.4418,1.5077,1.5022,1.4997,1.4923,1.4887,1.4832,1.4804,1.4765,1.4727,1.4658,1.4613,1.4581,1.4533,1.4473,1.4423,1.441,1.4391,1.4391,1.4375,1.4399,1.4401,1.4402,1.4414,1.4387,1.4387,1.4354,1.4354,1.4354]},{"header":{"parameterUnit":"m.s-1","parameterCategory":1,"la1":30.2991,"la2":30.254,"lo1":-89.0895,"lo2":-89.0444,"dy":0.0017,"dx":0.0017,"nx":28,"ny":28,"refTime":"2024-02-27T03:00:00:Z","depth":0,"parameterNumber":3,"parameterNumberName":"V-component_of_WINDS"},"data":[0,0,0,0,0,0,0,0,0,0,0,0,0,0,0,0,0,0,0,0,0,0,0,0,0,0,0,0,0,0,0,0,0,0,0,0,0,0,0,0,0,0,0,0,0,0,0,0,0,0,0,0,0,0,0,0,0,0,3.3056,3.3056,0,3.3067,3.3068,3.3068,3.3091,3.3092,3.3092,3.3092,3.3103,3.3102,3.3102,0,0,0,0,0,0,0,0,0,0,0,0,0,3.3056,3.3056,3.3056,3.3056,3.3057,3.3067,3.3068,3.3068,3.3091,3.3092,3.3092,3.3093,3.3103,3.3102,3.3102,0,0,0,0,0,0,0,0,0,0,0,0,0,3.306,3.3056,3.3056,3.307,3.3071,3.3067,3.3068,3.3068,3.3091,3.3092,3.3092,3.3093,3.3103,3.3102,3.3102,3.3086,0,0,3.3101,3.3101,0,0,0,0,0,0,0,0,3.306,3.306,3.3067,3.3069,3.307,3.3079,3.3071,3.3074,3.3091,3.3083,3.3092,3.3093,3.3094,3.3094,3.3095,3.3087,3.3087,3.3101,3.3101,3.3101,3.3101,0,0,0,0,0,0,0,3.306,3.306,3.3061,3.3068,3.3069,3.3075,3.3077,3.3072,3.3084,3.3084,3.3086,3.3087,3.3095,3.3095,3.3095,3.3087,3.3101,3.3101,3.3101,3.3101,3.3069,3.3069,0,0,0,0,0,0,3.3057,3.3059,3.306,3.3061,3.3067,3.3075,3.3076,3.3075,3.3085,3.3087,3.3086,3.3088,3.3095,3.3096,3.3096,3.3079,3.3101,3.3101,3.3101,3.307,3.3069,3.3068,0,0,0,0,0,0,3.3057,3.3057,3.306,3.3061,3.3062,3.3074,3.3072,3.3075,3.3075,3.3086,3.3089,3.3084,3.3096,3.3096,3.3089,3.308,3.3101,3.31,3.3071,3.307,3.3069,3.3046,0,0,0,0,0,0,3.3057,3.3057,3.3051,3.306,3.3061,3.3053,3.3072,3.3075,3.3075,3.3077,3.3085,3.3087,3.3096,3.3089,3.3089,3.308,3.31,3.3072,3.307,3.3069,3.3047,3.3044,3.3041,0,0,0,0,0,3.3057,3.3043,3.305,3.305,3.3054,3.3052,3.3053,3.3064,3.3074,3.3068,3.3076,3.3087,3.3081,3.3088,3.3088,3.3079,3.3072,3.3071,3.3069,3.3049,3.3045,3.3041,0,0,0,0,0,0,3.3031,3.3045,3.3053,3.3042,3.3046,3.3056,3.3049,3.3059,3.306,3.3062,3.3076,3.3078,3.3069,3.3073,3.3081,3.3065,3.3079,3.3077,3.3063,3.3059,3.3056,3.3056,3.31,0,0,0,0,0,3.3024,3.3022,3.3034,3.3023,3.3024,3.3036,3.3036,3.3045,3.3049,3.3051,3.3058,3.3062,3.3061,3.306,3.306,3.3048,3.3051,3.3042,3.3039,3.3036,3.3035,3.303,3.3027,3.3063,3.3063,3.3063,0,0,3.301,3.3017,3.3014,3.3018,3.3022,3.302,3.3038,3.3034,3.3032,3.305,3.3045,3.305,3.3055,3.3046,3.3043,3.3049,3.3025,3.3034,3.3032,3.3032,3.3029,3.3025,3.3022,3.3062,3.3062,3.3063,0,0,3.2982,3.2987,3.2979,3.2984,3.299,3.2999,3.2997,3.3006,3.3011,3.3006,3.302,3.3018,3.3016,3.3021,3.3022,3.2999,3.301,3.2998,3.2982,3.2978,3.2975,3.2973,3.2966,3.2963,3.2997,3.2997,3.2997,0,3.2963,3.296,3.2974,3.297,3.2972,3.2989,3.2982,3.2985,3.2991,3.2992,3.3,3.3,3.3004,3.2998,3.2992,3.2992,3.2992,3.2998,3.2975,3.2972,3.297,3.2964,3.2961,3.2995,3.2996,3.2996,3.2996,0,3.2937,3.2935,3.2928,3.2935,3.2936,3.293,3.2943,3.2943,3.2952,3.296,3.2955,3.2962,3.2964,3.2963,3.2971,3.2958,3.2962,3.2972,3.2986,3.2965,3.296,3.2957,3.2993,3.2994,3.2994,3.2995,0,0,3.2893,3.2909,3.2906,3.291,3.292,3.2919,3.2914,3.2918,3.2918,3.2922,3.2919,3.2918,3.2928,3.293,3.2939,3.2936,3.2919,3.2946,3.2946,3.2942,3.2906,3.29,3.2896,3.2926,3.2925,3.2925,3.2906,0,3.2868,3.2862,3.2875,3.2866,3.2866,3.2883,3.288,3.2886,3.2893,3.2894,3.2902,3.2902,3.2914,3.2916,3.2913,3.2921,3.2912,3.2923,3.2924,3.2924,3.2923,3.2893,3.2885,3.2867,3.2904,3.2904,3.2903,0,3.2839,3.2843,3.2834,3.2846,3.2846,3.2843,3.2848,3.2848,3.2856,3.2862,3.2865,3.2877,3.2874,3.2887,3.2885,3.2892,3.2894,3.2898,3.2898,3.2899,3.2913,3.2894,3.2862,3.2859,3.29,3.29,3.29,0,3.2809,3.2812,3.2808,3.2811,3.2824,3.2822,3.2828,3.2836,3.2838,3.2842,3.2844,3.2848,3.285,3.2853,3.2866,3.2874,3.2862,3.2876,3.2868,3.2868,3.2865,3.2865,3.2833,3.2864,3.2864,3.2864,3.2864,0,3.278,3.2775,3.2795,3.2792,3.2787,3.2802,3.2797,3.2804,3.2812,3.2811,3.2826,3.2826,3.2842,3.2843,3.2853,3.285,3.2851,3.2856,3.2859,3.2855,3.2855,3.2857,3.2859,3.2864,3.2864,3.2864,3.2864,0,3.2746,3.2759,3.2756,3.277,3.2774,3.2769,3.2781,3.278,3.2789,3.2789,3.279,3.2804,3.2807,3.282,3.2825,3.2831,3.2826,3.2831,3.2824,3.2826,3.2817,3.2818,3.2786,3.2783,3.2816,3.2815,3.2815,0,3.2727,3.2724,3.2738,3.2739,3.2745,3.2746,3.2749,3.2764,3.2766,3.2776,3.2774,3.2778,3.2782,3.2786,3.2797,3.2801,3.2807,3.2795,3.2808,3.2805,3.2808,3.2809,3.2809,3.2793,3.2792,3.2792,3.2792,0,3.2694,3.2701,3.2704,3.271,3.2713,3.2719,3.2725,3.2725,3.2742,3.2744,3.2748,3.2751,3.2757,3.2762,3.2769,3.2775,3.2787,3.2788,3.2787,3.2783,3.278,3.2783,3.2817,3.2789,3.2789,3.2789,3.2789,3.2789,3.2667,3.2666,3.2676,3.268,3.2687,3.2693,3.2693,3.2703,3.2706,3.2713,3.2722,3.2725,3.2734,3.2745,3.2751,3.2753,3.276,3.2757,3.2757,3.2756,3.2755,3.2779,3.2754,3.2755,3.2755,3.2755,3.2755,0,3.2635,3.2644,3.2647,3.2656,3.2659,3.2671,3.2679,3.2681,3.2684,3.2692,3.2696,3.2701,3.2706,3.2718,3.2724,3.2724,3.273,3.2725,3.2726,3.2728,3.2748,3.2749,3.2721,3.2721,3.2721,3.2721,3.2721,3.2721,3.2619,3.2618,3.2626,3.2629,3.2637,3.2641,3.2644,3.2651,3.2657,3.2663,3.2667,3.2675,3.2686,3.2693,3.2698,3.2702,3.2704,3.2698,3.2703,3.2723,3.2726,3.2729,3.273,3.2698,3.2698,3.2683,3.2682,3.2682]}]]